METEOR 2-11 DEB, 40709

Orbit data source: Space-Track

METEOR 2-11 DEB, 40709 is space debris in LEO originally from a launch on Thu, 05 Jul 1984 UTC launched from the Plesetsk Missile And Space Complex (PKMTR). Debris objects in space refer to the collection of defunct objects orbiting the Earth. Examples of debris include non-operational satellites, rocket bodies, and fragments generated from explosions, collisions, or faulty payload assembly.

Loading next visibility...
METEOR 2-11 DEB details
Identifier
40709, 1984-072L
Orbit
LEO
Last TLE update2 months ago
Origin
Flag of CISVVKO (CIS)
ManufacturerUnknown
MissionSpacecraft
Bus & MotorUnknown
MassUnknown
Launch date (UTC)
1984-07-05 (40 years ago)
Launch vehicleUnknown
Launch site
Plesetsk Missile And Space Complex (PKMTR)
Object type
Payload
Rocket body
Debris
Shape & HBRUnknown
Radar Cross SectionSmall (<0.1 m²)

Expand to show TLE details & history

TLE from 2 months ago
0 METEOR 2-11 DEB
1 40709U 84072L   24275.38900765  .00004834  00000-0  34769-2 0  9999
2 40709  82.5237 149.0107 0015907 272.1032  87.8313 13.96621721756635
Epoch: 2024-10-01T09:20Z
Definitive object data (Epoch: 2024-10-01T09:20:10.26Z)
Latitude-0.0001°
Longitude-1.6355°
Altitude908.016 km
Speed7.398 km/s
True Right ascension09h 56m 02s
True Declination0° 00' 00"
Sunlit
Object was in daylight at TLE epoch
Visualization TLE readout
Latitude-71.8355°
Longitude-85.17231°
Altitude937.649 km
Speed7.378 km/s
Apparent Right ascension15h 18m 39s
Apparent Declination-76° 24' 43"
Sunlit
Object is in daylight
Visualization observer readout
Local Sidereal Time03:47:52
Azimuth177.13° S
Elevation-53.364°
Doppler factor1
Orbital elements
Apogee altitude914.234 km
Perigee altitude891.071 km
Semi-major axis7,280.79 km
Eccentricity0.0015907
Inclination82.5237°
RAAN149.0107°
Arg. of periapsis272.1032°
True anomaly88.01346°
Mean anomaly87.8313°
Eccentric anomaly87.92238°
Mean motion3.49362 °/min
BSTAR0.0034769
Orbital period103.05 mins
Loading maneuver chart data...
Loading historical data...
Loading historical data...
Loading historical data...
Loading historical data...
Loading historical data...
Loading historical data...
Loading historical data...

METEOR 2-11 DEB Visibility forecast

Observer location: undefined°, undefined

Span
Click to sort rows by Start time (UTC) header in descending order
Start Az.
Max El. time (UTC)
Max El. Az.
Max El.
End time (UTC)
End Az.
11 mins2024-12-14 07:24:51.468Z174.167° S2024-12-14 07:30:51.468Z67.243° ENE41.652°2024-12-14 07:35:51.468Z14.07° NNE
5 mins2024-12-14 09:12:51.468Z268.688° W2024-12-14 09:14:51.468Z292.539° NW16.026°2024-12-14 09:17:51.468Z325.953° NNW
9 mins2024-12-14 18:12:51.468Z10.55° NNE2024-12-14 18:16:51.468Z67.457° ENE34.818°2024-12-14 18:21:51.468Z145.699° SSE
7 mins2024-12-14 19:57:51.468Z312.127° NW2024-12-14 20:00:51.468Z272.197° WNW21.925°2024-12-14 20:04:51.468Z225.824° WSW
|